Location: Hat Ranch Observatory
(35.4668°N, 106.0752°W)
Time: 13:55:30
(UTC-06:00)

X-37B - Pass Details

Date: 27 January 2022
Orbit: 329 x 342 km, 45.0° (Epoch: 18 May)

Event Time Altitude Azimuth Distance (km) Brightness Sun altitude
Rises 18:09:39 0° 244° (WSW) 2,104 6.4 -9.0°
Reaches altitude 10° 18:11:40 10° 247° (WSW) 1,267 4.8 -9.4°
Maximum altitude 18:14:29 66° 330° (NNW) 367 0.5 -9.9°
Enters shadow 18:16:42 15° 52° (NE) 1,016 2.1 -10.4°
